Regional Weather Roundup
Issued by NWS

Home | Current Version | Previous Version | Text Only | Print | Product List | Glossary On
Versions: 1 2 3 4 5 6 7 8 9 10 11 12 13 14 15 16 17 18 19 20 21 22 23 24 25 26 27
000
ASUS44 KJAN 201210
RWRMS

MISSISSIPPI HOURLY WEATHER ROUNDUP
NATIONAL WEATHER SERVICE JACKSON MS
600 AM CST MON FEB 20 2017

NOTE: "FAIR: INDICATES FEW OR NO CLOUDS BELOW 12,000 FEET WITH NO
SIGNIFICANT WEATHER AND/OR OBSTRUCTIONS TO VISIBILITY.

MSZ001>002-007>008-010>013-018>021-025>028-034>036-201300-
NORTHWEST MISSISSIPPI

CITY           SKY/WX    TMP DP  RH WIND       PRES   REMARKS
BATESVILLE     FAIR      51  50  97 CALM      30.06F
CLEVELAND      FAIR      61  55  82 SE12      30.02R
GREENWOOD      CLOUDY    59  50  72 SE8       30.04S
6HR MIN TEMP:  58; 6HR MAX TEMP:  65;

GREENVILLE     CLEAR     60  53  77 SE12      30.00F
6HR MIN TEMP:  59; 6HR MAX TEMP:  63;

OXFORD         FAIR      55  48  76 SE8       30.09S
TUNICA         CLOUDY    59  52  77 SE9       30.04S
WINONA         FAIR      54  52  92 CALM      30.05F
$$

MSZ003>006-009-014>017-022>024-029>033-037>039-201300-
NORTHEAST MISSISSIPPI

CITY           SKY/WX    TMP DP  RH WIND       PRES   REMARKS
COLUMBUS AFB   CLOUDY    47  46  95 CALM      30.10R
6HR MIN TEMP:  46; 6HR MAX TEMP:  52;

CORINTH        FAIR      46  45  93 CALM      30.10R
GOLDN TRIANGLE CLEAR     52  45  76 CALM      30.06S
TUPELO         PTCLDY    47  44  90 CALM      30.10R
6HR MIN TEMP:  46; 6HR MAX TEMP:  54;

$$

MSZ040-058-201300-
CENTRAL MISSISSIPPI

CITY           SKY/WX    TMP DP  RH WIND       PRES   REMARKS
JACKSON INTL   PTCLDY    59  54  83 SE8       30.05F
6HR MIN TEMP:  55; 6HR MAX TEMP:  66;

JACKSON HAWKNS MOCLDY    58  53  84 SE8       30.04F
6HR MIN TEMP:  58; 6HR MAX TEMP:  64;

MADISON        FAIR     N/A N/A N/A SE3       30.04F
MERIDIAN KEY   MOCLDY    50  49  96 W3        30.09R
6HR MIN TEMP:  50; 6HR MAX TEMP:  54;

MERIDIAN NAS   MOCLDY    51  47  86 E3        30.10S
6HR MIN TEMP:  50; 6HR MAX TEMP:  55;

VICKSBURG VKS  SUNNY     57  52  82 SE3       29.99S
$$

MSZ059>079-201300-
SOUTH MISSISSIPPI

CITY           SKY/WX    TMP DP  RH WIND       PRES   REMARKS
BROOKHAVEN     FAIR     N/A N/A N/A CALM      30.05S
COLUMBIA       FOG       55  55 100 CALM      30.09S VSB<1/4
HATTIESBURG    FOG       57  56  96 E3        30.08R VSB 1/4
6HR MIN TEMP:  51; 6HR MAX TEMP:  57;

LAUREL         FAIR      52  52 100 CALM      30.08S
MCCOMB         FOG       57  56  96 SE6       30.04S VSB 1/2
6HR MIN TEMP:  55; 6HR MAX TEMP:  60;

NATCHEZ        CLOUDY    63  59  88 SE9       30.00S
6HR MIN TEMP:  61; 6HR MAX TEMP:  64;

PINE BELT      CLOUDY    55  52  88 CALM      30.09S VSB<1/4
6HR MIN TEMP:  52; 6HR MAX TEMP:  57;

$$

MSZ080>082-201300-
COASTAL MISSISSIPPI

CITY           SKY/WX    TMP DP  RH WIND       PRES   REMARKS
BILOXI         CLOUDY    64  64 100 E6        30.05S FOG
6HR MIN TEMP:  62; 6HR MAX TEMP:  65;

PASCAGOULA     FOG       60  58  92 E5        30.06S VSB 1/4
6HR MIN TEMP:  57; 6HR MAX TEMP:  60;

GULFPORT       CLOUDY    64  64 100 E7        30.05R FOG
6HR MIN TEMP:  58; 6HR MAX TEMP:  64;

$$

LAZ007>009-015>016-023>026-201300-
NORTHEAST LOUISIANA

CITY           SKY/WX    TMP DP  RH WIND       PRES   REMARKS
BASTROP        CLOUDY    62  60  95 CALM      30.02R
TALLULAH/VBURG CLOUDY    54  49  83 E8        30.01S
6HR MIN TEMP:  53; 6HR MAX TEMP:  63;

VIDALIA        CLOUDY    65  63  91 SE5       29.99R
$$




USA.gov is the U.S. government's official web portal to all federal, state and local government web resources and services.